Weather History for Grand Junction, CO

Change the Weather History Date:

Thursday, July 25, 2013

  Actual Average Record
Temperature  
Mean Temperature 78 °F 78 °F  
Max Temperature 95 °F 93 °F 104 °F (1931)
Min Temperature 61 °F 64 °F 55 °F (1986)
Degree Days  
Heating Degree Days 0 0  
Month to date heating degree days 0 0  
Since 1 June heating degree days 5 22  
Since 1 July heating degree days 0 0  
Cooling Degree Days 13 14  
Month to date cooling degree days 389 334  
Year to date cooling degree days 758 616  
Since 1 June cooling degree days 703 565  
Growing Degree Days 30 (Base 50)    
Moisture  
Dew Point 46 °F    
Average Humidity 33    
Maximum Humidity 48    
Minimum Humidity 18    
Precipitation  
Precipitation 0.00 in 0.02 in 0.46 in (1955)
Month to date precipitation 0.64 0.46  
Year to date precipitation 4.06 4.75  
Snow  
Snow 0.00 in 0.00 in 0.00 in (2013)
Month to date snowfall 0.0 0.0  
Since 1 June snowfall 0.0 0.0  
Since 1 July snowfall 0.0 0.0  
Snow Depth 0.00 in    
Sea Level Pressure  
Sea Level Pressure 29.89 in    
Wind  
Wind Speed 8 mph (NNE)    
Max Wind Speed 35 mph    
Max Gust Speed 49 mph    
Visibility 10 miles    
Events      
T = Trace of Precipitation, MM = Missing Value Source: NWS Daily Summary

Daily Weather History Graph

Daily Weather History Graph

Search for Another Location

Airport:

Trip Planner

Search our weather history database for the weather conditions in past years. The results will help you decide how hot, cold, wet, or windy it might be!

Date:

Astronomy

Jul. 25, 2013 Rise Set
Actual Time 6:08 AM MDT 8:32 PM MDT
Civil Twilight 5:38 AM MDT 9:02 PM MDT
Nautical Twilight 5:00 AM MDT 9:39 PM MDT
Astronomical Twilight 4:19 AM MDT 10:21 PM MDT
Moon 10:16 PM MDT (7/25) 9:39 AM MDT (7/25)
Length of Visible Light 15h 24m
Length of Day
14h 23m
Waning Gibbous, 88% of the Moon is Illuminated
Jul 25
Waning Gibbous
Jul 29
Last Quarter
Aug 6
New
Aug 14
First Quarter
Aug 20
Full

Hourly Weather History & Observations

Time (MDT) Temp. Dew Point Humidity Pressure Visibility Wind Dir Wind Speed Gust Speed Precip Events Conditions
12:53 AM 71.1 °F 46.9 °F 42% 29.86 in 10.0 mi NNE 5.8 mph - N/A   Clear
1:53 AM 72.0 °F 46.9 °F 41% 29.84 in 10.0 mi ENE 5.8 mph - N/A   Overcast
2:53 AM 71.1 °F 48.0 °F 44% 29.86 in 10.0 mi ENE 6.9 mph - N/A   Mostly Cloudy
3:53 AM 69.1 °F 46.0 °F 44% 29.86 in 10.0 mi North 6.9 mph - N/A   Partly Cloudy
4:53 AM 70.0 °F 46.9 °F 44% 29.88 in 10.0 mi Calm Calm - N/A   Clear
5:53 AM 64.0 °F 45.0 °F 50% 29.91 in 10.0 mi Calm Calm - N/A   Clear
6:53 AM 66.0 °F 46.9 °F 50% 29.93 in 10.0 mi Calm Calm - N/A   Clear
7:53 AM 73.0 °F 48.0 °F 41% 29.93 in 10.0 mi Calm Calm - N/A   Clear
8:53 AM 75.0 °F 50.0 °F 41% 29.94 in 10.0 mi SE 4.6 mph - N/A   Clear
9:53 AM 80.1 °F 50.0 °F 35% 29.94 in 10.0 mi WNW 3.5 mph - N/A   Partly Cloudy
10:53 AM 82.9 °F 51.1 °F 33% 29.94 in 10.0 mi Variable 4.6 mph - N/A   Clear
11:53 AM 86.0 °F 52.0 °F 31% 29.93 in 10.0 mi West 10.4 mph 16.1 mph N/A   Clear
12:53 PM 89.1 °F 48.9 °F 25% 29.90 in 10.0 mi West 11.5 mph - N/A   Clear
1:53 PM 91.0 °F 43.0 °F 19% 29.87 in 10.0 mi West 11.5 mph 18.4 mph N/A   Clear
2:53 PM 90.0 °F 44.1 °F 20% 29.85 in 10.0 mi West 8.1 mph - N/A   Clear
3:53 PM 93.0 °F 45.0 °F 19% 29.83 in 10.0 mi West 10.4 mph - N/A   Clear
4:44 PM 89.6 °F 46.4 °F 22% 30.07 in 7.0 mi NE 17.3 mph 49.5 mph N/A   Squalls
4:53 PM 90.0 °F 44.1 °F 20% 29.84 in 10.0 mi NNE 23.0 mph 28.8 mph N/A   Scattered Clouds
5:00 PM 91.4 °F 44.6 °F 20% 30.07 in 10.0 mi NE 20.7 mph 31.1 mph N/A   Scattered Clouds
5:53 PM 91.9 °F 42.1 °F 18% 29.83 in 10.0 mi East 9.2 mph - N/A   Clear
6:53 PM 90.0 °F 44.1 °F 20% 29.82 in 10.0 mi South 3.5 mph - N/A   Clear
7:53 PM 89.1 °F 42.1 °F 19% 29.81 in 10.0 mi Calm Calm - N/A   Clear
8:53 PM 82.9 °F 46.0 °F 27% 29.83 in 10.0 mi NE 6.9 mph - N/A   Clear
9:53 PM 82.9 °F 44.1 °F 25% 29.84 in 10.0 mi ENE 17.3 mph 21.9 mph N/A   Clear
10:53 PM 80.1 °F 46.0 °F 30% 29.86 in 10.0 mi NE 16.1 mph 25.3 mph N/A   Clear
11:53 PM 80.1 °F 46.0 °F 30% 29.91 in 10.0 mi SSW 6.9 mph - N/A   Clear